{"data":{"norad_id":53479,"intl_designator":"2022-099Q","name":"STARLINK-4436","alt_names":[],"object_type":"PAYLOAD","status":"ACTIVE","operator":null,"country":"US","launch_date":"2022-08-12","launch_site_code":"AFWTR","launch_vehicle":null,"mission":null,"orbit_class":"UNKNOWN","rcs_meters":null,"size_class":null,"mass_kg":null,"dimensions":null,"purposes":["comms"],"wikipedia_slug":null,"has_3d_model":false,"image_url":null,"decayed_at":null,"tle_current":{"epoch":"2026-09-20T07:16:14.942208Z","epoch_age_seconds":96046,"freshness":"FRESH","line1":"1 53479U 22099Q   26263.30295072 -.00000858  00000+0 -24256-4 0  9992","line2":"2 53479  97.2861  20.9112 0001190 103.2037 256.9338 15.33442837225516","mean_motion":15.33442837,"eccentricity":0.000119,"inclination_deg":97.2861,"raan_deg":20.9112,"arg_perigee_deg":103.2037,"mean_anomaly_deg":256.9338,"bstar":-2.4256e-5,"rev_number":22551,"period_min":93.906337116367,"perigee_km":464.7352113453,"apogee_km":466.36400875849,"semimajor_km":6843.6866100519,"source":"CELESTRAK","updated_at":"2026-09-21T09:00:32.889901Z"}}}